Theta_e
322 323 326 327 329 330 335 336 333 338 333 330 333 327 324 325 324 321 319 318 318 319 320 322 325 325 325 325 327 327 325 329 335 333 329 326 321 322 326 325 327 327 327 326 324 325 325 325 325 327 329 328 327 327 330 332 333 333 333 333 335 335 335 336 336 336 336 336 335 335 335 335 334 335 334 333 332 331 331 332 332 334 336 337 338 338 338 339 339 339 339 338 337 337 336 336 336
323 327 328 328 329 331 344 339 332 335 328 327 330 325 324 324 323 321 320 320 320 319 321 323 325 326 325 324 322 324 325 322 326 327 322 319 320 323 324 324 326 326 326 325 324 322 322 322 323 327 328 328 327 329 330 331 331 332 332 332 333 333 333 333 333 333 333 333 332 332 332 331 331 332 331 330 330 330 330 330 330 331 332 333 334 335 336 336 337 338 338 337 336 335 334 333 333
324 329 329 330 331 333 343 337 333 331 323 327 331 330 323 321 325 323 321 320 321 321 323 323 325 324 323 326 320 322 325 320 319 319 317 318 320 321 323 324 324 326 325 325 324 320 320 321 323 326 327 327 328 328 329 329 330 329 330 331 331 331 331 331 331 331 330 330 329 329 329 329 329 329 329 328 327 327 327 327 327 328 328 329 330 331 332 333 334 334 334 334 333 332 331 331 331
326 330 329 331 338 338 340 337 338 329 325 328 326 331 325 324 327 321 321 320 320 322 323 322 323 320 320 325 319 323 325 320 319 317 317 317 319 321 323 323 323 325 324 325 323 319 319 320 322 324 325 326 327 327 328 328 328 328 328 328 328 328 329 329 328 328 326 326 325 325 325 325 325 325 325 324 323 323 323 323 323 324 324 325 326 327 329 329 328 328 328 328 328 327 327 327 327
326 330 327 330 341 341 336 335 338 329 330 330 319 328 327 324 325 320 321 320 321 322 322 321 322 319 319 322 320 326 325 322 319 316 317 316 319 321 322 322 322 323 323 324 322 318 318 319 320 322 323 324 325 325 325 325 324 324 324 324 324 324 324 324 324 323 322 321 320 320 319 318 318 318 318 318 317 317 316 315 315 315 316 317 318 320 321 321 320 319 319 318 318 318 318 319 320
325 327 326 328 335 334 333 334 336 330 330 329 321 325 324 323 323 321 321 319 321 321 321 319 321 321 320 319 319 324 323 322 318 315 317 316 318 320 320 321 321 321 321 321 319 318 317 318 318 319 320 319 320 319 319 318 318 318 318 318 318 318 318 318 317 316 315 314 312 311 310 309 309 309 309 309 308 308 307 306 305 305 305 306 307 309 312 312 310 308 307 306 306 306 307 307 309
326 328 330 331 331 328 332 332 332 331 329 327 325 324 322 322 321 321 321 319 320 319 319 320 321 321 320 318 318 319 318 320 318 316 317 316 318 319 318 319 319 320 319 319 317 317 317 316 315 315 315 313 313 311 310 310 309 309 310 310 310 310 310 309 308 307 307 306 304 303 302 301 301 301 301 301 301 300 300 300 299 299 299 299 299 301 304 305 302 300 299 299 299 299 299 300 300
325 330 334 337 336 328 329 329 327 327 327 326 324 324 323 321 320 322 323 320 320 318 319 320 320 321 320 318 320 318 315 319 318 317 316 316 318 317 317 317 319 319 319 318 315 315 315 315 314 312 309 308 307 305 305 303 303 303 303 303 303 303 302 302 301 301 300 299 299 299 298 298 298 298 298 298 298 298 298 298 297 297 297 297 297 297 298 299 298 297 297 297 297 298 297 297 297
323 329 333 335 334 327 328 329 326 325 325 326 322 322 323 320 322 324 323 320 320 319 319 320 319 320 319 319 321 317 315 318 316 316 315 316 316 315 316 316 317 318 319 318 315 314 314 314 312 308 306 304 303 302 302 301 301 300 300 300 299 299 299 299 298 298 298 298 298 297 297 297 297 297 297 297 297 297 297 297 297 297 298 298 298 298 299 300 300 297 297 297 296 297 296 297 297
324 327 331 332 330 328 329 327 327 330 326 325 323 321 322 320 322 324 323 321 321 320 320 319 318 318 318 320 323 317 315 316 315 314 314 315 314 313 315 315 315 315 316 316 314 313 312 312 308 305 304 303 302 301 300 300 300 300 299 299 299 299 298 298 298 298 298 298 298 297 297 297 297 296 296 297 296 297 296 296 296 296 298 299 300 300 301 302 303 301 299 298 298 297 297 296 296
328 328 329 328 327 326 329 328 327 333 328 323 323 321 322 322 321 322 321 321 321 321 319 318 318 319 317 320 325 317 313 314 314 313 313 313 312 312 313 313 314 313 313 312 311 312 310 308 305 304 303 302 301 300 300 300 300 300 299 299 298 298 298 298 298 298 297 297 297 297 297 297 297 296 296 296 296 296 296 296 296 296 296 297 297 298 298 299 300 299 298 297 298 299 300 299 298
330 332 330 326 328 327 328 328 326 331 332 325 321 319 322 322 320 320 321 320 320 321 319 318 320 320 318 319 321 314 311 312 313 313 312 311 310 310 311 311 312 311 311 310 310 310 307 304 304 304 302 300 300 300 300 300 299 299 298 298 298 298 298 297 297 297 297 297 297 297 297 297 297 297 296 296 296 296 296 296 296 296 296 296 296 296 296 296 296 296 295 295 296 297 300 301 302
329 332 327 327 334 330 325 327 328 331 332 326 320 319 320 321 322 322 322 321 320 321 319 318 319 318 319 320 316 312 311 311 312 312 311 308 307 308 309 309 310 310 309 308 307 306 304 303 303 302 301 300 299 300 299 299 299 298 298 298 298 298 297 297 297 297 297 297 297 297 297 297 297 296 296 296 296 296 296 296 296 296 296 296 295 295 295 295 295 295 295 295 295 295 296 298 298
328 330 323 328 335 328 325 326 327 327 328 326 319 319 320 320 322 322 322 320 320 321 319 317 318 318 319 319 317 314 312 311 311 311 309 306 306 306 306 307 307 307 307 306 304 303 302 301 300 299 299 299 299 299 299 298 298 298 298 297 297 297 297 297 297 297 297 297 297 297 297 297 296 296 296 296 296 296 296 296 295 295 295 295 295 294 294 295 294 294 295 295 294 295 295 295 295
326 333 324 326 330 326 326 326 324 322 329 329 318 319 320 319 320 320 320 319 319 319 317 316 316 318 318 318 324 319 312 311 310 310 308 306 306 305 305 305 305 305 305 304 301 300 300 299 299 298 298 299 298 298 298 298 297 297 297 297 297 297 297 297 297 297 297 297 296 296 296 296 296 296 296 296 295 295 295 295 294 294 294 294 294 293 294 295 295 294 295 294 293 294 294 294 294
327 334 326 324 328 325 327 330 326 323 329 328 318 319 319 318 319 319 317 317 320 318 317 318 316 317 318 318 321 317 311 311 310 308 307 305 305 305 305 305 304 304 303 302 300 299 298 297 297 297 298 298 298 298 298 297 297 297 296 296 297 297 297 296 296 296 296 296 296 296 296 296 295 295 295 295 295 294 294 294 294 293 294 294 293 293 294 294 294 294 293 293 293 293 293 293 293
330 332 326 326 328 326 330 331 324 324 329 324 317 318 318 319 318 316 314 314 319 318 318 318 316 315 316 318 316 314 311 310 309 307 306 304 304 304 304 304 303 302 301 301 300 299 298 297 297 298 298 298 298 298 297 297 296 296 296 296 296 296 296 296 296 296 296 296 296 296 295 295 295 295 294 294 294 294 294 293 293 293 294 294 293 293 293 293 293 293 293 293 293 293 293 293 293
331 332 325 324 327 327 332 329 321 323 324 320 319 319 318 319 319 316 314 316 317 317 318 318 317 314 312 314 313 312 310 308 307 305 304 303 303 303 303 303 302 301 301 301 300 299 299 298 298 298 298 298 298 298 297 296 296 296 296 296 296 296 296 296 296 296 296 296 296 296 295 294 294 294 294 294 294 294 293 293 293 293 294 294 294 294 293 293 293 293 293 293 293 293 293 293 293
330 333 326 327 332 331 328 323 320 320 319 320 321 320 318 319 321 316 316 320 317 316 318 317 317 314 311 310 309 309 308 307 306 304 304 303 303 303 302 302 302 301 301 301 301 300 299 299 298 298 299 299 298 297 296 296 296 296 296 296 296 296 296 296 296 295 296 295 295 295 295 294 293 294 294 293 293 294 293 293 294 294 294 294 294 294 294 293 293 293 293 293 293 293 293 293 293
329 329 326 333 334 327 324 320 319 319 318 320 319 318 318 318 318 315 316 320 318 318 317 317 318 316 313 310 307 307 307 306 305 304 304 303 303 303 303 302 302 301 300 301 301 300 300 299 299 298 298 299 299 297 296 296 295 295 295 295 295 295 295 295 295 295 295 295 294 295 295 294 293 294 294 293 293 293 293 294 294 294 294 294 294 294 294 293 293 293 293 293 293 293 293 292 292
326 324 326 333 328 322 323 320 320 320 319 319 319 317 317 318 317 316 317 318 317 317 316 316 318 316 314 310 307 306 306 305 304 304 304 303 303 303 303 303 303 302 301 300 301 301 300 299 299 298 298 299 299 297 296 296 295 295 295 295 295 295 295 295 295 295 295 295 294 294 294 294 293 293 294 294 294 294 294 294 295 295 295 295 294 294 294 293 293 293 293 293 292 292 292 292 292
324 322 323 327 323 321 322 320 321 321 318 318 318 317 317 318 317 317 318 317 317 317 316 315 316 316 314 310 307 305 305 305 304 304 304 304 303 304 304 303 303 302 301 301 301 301 300 300 300 299 298 299 299 297 296 296 295 295 295 295 295 295 295 295 294 294 295 295 295 295 295 295 294 294 294 295 294 294 295 295 295 295 295 295 294 294 293 293 292 292 292 292 292 292 292 292 291
323 323 321 322 321 321 319 319 322 320 316 317 317 316 316 316 317 318 317 316 316 318 319 318 316 314 311 309 307 307 307 306 304 304 304 304 304 304 304 304 303 302 301 301 301 301 300 300 300 299 299 299 298 297 296 296 296 295 295 295 295 295 295 295 295 295 295 295 295 296 296 295 295 295 295 295 295 295 295 295 296 295 294 294 294 293 293 292 292 292 292 292 292 292 292 292 291
322 323 322 320 320 319 318 318 321 320 316 318 317 315 315 316 317 317 317 316 315 317 319 319 315 311 310 310 309 308 308 306 305 305 305 305 305 305 305 304 304 303 302 302 301 301 301 300 300 299 299 299 298 296 295 295 296 296 296 296 296 295 295 295 295 295 295 295 296 296 296 296 295 295 295 295 295 295 295 295 295 294 293 293 293 292 292 292 292 292 292 292 292 292 291 291 291
321 322 320 319 318 319 318 318 320 319 317 317 316 315 316 316 315 315 315 315 315 315 316 317 316 315 314 312 310 309 308 307 305 305 305 305 306 306 305 305 304 303 302 302 302 301 301 301 300 299 299 299 298 296 295 296 296 296 296 296 296 295 295 296 295 295 295 295 295 295 296 296 295 295 295 295 295 295 295 294 294 293 293 292 292 292 291 291 291 291 291 292 291 291 291 291 291
321 320 319 318 318 318 317 317 317 317 317 316 315 316 316 314 314 314 314 314 314 315 315 316 315 317 317 313 311 310 309 308 306 305 305 305 306 305 305 305 304 303 303 303 302 302 302 301 301 300 299 299 298 296 296 296 296 297 297 296 296 296 295 296 296 295 295 295 295 295 295 295 295 295 295 295 295 294 294 294 293 293 292 292 291 291 291 291 291 291 291 291 291 290 290 289 290
319 317 317 317 317 316 315 316 316 315 317 316 316 316 315 313 314 314 315 314 314 314 314 315 315 316 316 314 311 310 310 309 306 306 306 305 305 305 305 305 304 304 304 303 303 303 302 301 301 300 300 299 298 296 296 297 297 297 297 296 296 296 296 296 296 295 295 294 295 295 295 295 295 295 295 295 294 294 294 293 293 292 292 292 291 291 291 291 291 291 291 290 290 289 289 289 289
316 316 317 317 316 316 315 315 315 314 315 317 315 315 315 314 314 314 314 315 316 317 316 314 314 315 315 314 312 310 310 308 307 307 306 305 305 305 305 305 305 304 304 304 303 303 302 302 301 300 300 299 298 297 297 297 297 297 298 297 296 297 297 296 295 295 295 294 294 295 295 294 294 295 295 295 294 294 293 293 293 292 292 292 291 291 291 291 290 290 290 289 289 289 288 288 288
315 315 316 317 315 315 315 315 315 314 316 317 314 315 316 314 315 315 314 314 315 316 317 316 314 314 314 313 312 311 309 308 307 306 306 307 306 306 305 306 306 304 304 304 303 302 302 302 301 301 300 299 298 297 297 297 297 297 298 297 296 296 296 295 295 296 295 294 294 294 294 294 294 294 294 295 294 294 293 293 293 292 292 291 291 290 290 291 291 290 290 289 289 288 288 288 288
316 315 316 317 316 317 316 315 316 314 315 316 314 315 317 316 315 314 313 314 313 314 316 316 315 314 314 313 312 312 310 308 308 307 307 308 307 307 306 306 306 305 304 303 303 303 302 302 301 301 300 300 298 297 298 297 297 297 297 297 296 296 296 295 295 295 295 294 294 294 294 294 294 294 294 294 294 294 293 293 292 291 291 290 290 290 290 291 291 290 290 289 289 288 287 287 287
316 315 317 317 317 319 317 316 318 316 314 315 315 315 316 316 315 314 314 314 313 314 314 314 315 314 314 314 313 312 311 309 308 308 308 308 308 307 307 306 306 305 304 303 303 303 302 302 301 301 300 300 298 298 298 298 297 297 297 296 296 295 295 294 294 294 294 294 293 293 294 294 294 293 293 294 294 293 293 292 291 291 290 290 290 290 291 291 290 290 289 289 288 287 287 287 287
317 316 319 321 319 318 317 317 317 316 314 312 315 316 315 315 315 314 314 315 313 313 314 313 314 314 314 314 313 312 311 309 307 308 309 309 309 308 308 307 306 306 305 304 303 302 302 301 301 301 300 300 299 298 298 298 297 297 297 296 296 296 294 294 294 294 294 293 293 293 293 294 293 293 293 293 293 293 292 292 291 290 290 290 290 290 290 290 290 289 289 288 287 287 287 287 287
320 316 318 321 319 316 317 319 317 316 316 312 314 316 316 316 317 316 315 316 315 313 314 314 313 313 313 313 313 312 312 310 309 308 308 309 309 309 308 308 307 307 305 304 303 302 302 301 301 300 300 300 299 298 297 297 297 297 297 296 296 295 294 294 294 294 293 293 292 292 293 293 293 293 293 293 293 292 292 291 290 290 290 290 290 290 290 290 289 289 288 287 286 286 286 286 286
320 318 318 319 318 316 317 321 318 316 316 314 313 314 315 316 317 317 317 317 316 314 314 315 314 313 312 313 312 312 312 312 311 308 307 308 309 309 309 308 307 307 306 304 303 302 302 301 300 300 300 299 298 298 297 297 297 297 297 297 296 295 294 293 293 294 293 293 292 292 292 293 292 292 292 292 292 292 291 291 290 290 290 290 290 290 290 289 289 288 287 286 286 286 286 286 286
318 320 320 318 317 316 316 318 317 315 315 315 314 313 313 314 313 314 314 315 315 315 315 314 314 314 313 312 312 312 312 312 312 309 308 308 308 309 308 308 308 307 306 304 303 303 301 300 300 299 299 299 298 298 297 297 297 297 297 296 296 295 294 293 294 293 293 292 292 292 292 292 292 292 291 292 291 291 291 290 290 290 290 289 289 289 289 289 288 288 287 287 286 286 286 285 285
316 318 318 317 316 314 314 315 317 316 315 316 315 314 313 313 312 312 312 312 313 313 314 314 314 314 313 312 312 312 312 312 311 309 308 308 308 308 308 308 307 307 306 304 303 302 301 300 299 299 299 299 298 297 297 297 297 297 296 296 296 294 293 293 294 293 293 292 292 292 292 292 292 291 291 291 291 291 291 290 290 289 289 289 289 289 289 289 288 288 287 287 286 286 286 285 285
315 316 316 316 315 314 314 315 318 316 316 317 317 315 314 314 313 313 313 312 313 313 313 313 312 313 313 313 313 313 313 312 311 309 309 309 308 308 308 308 306 306 305 304 303 302 301 300 299 299 299 298 298 297 297 297 297 296 296 296 295 294 294 294 294 293 293 292 292 292 292 292 292 291 291 291 291 291 291 290 290 289 289 289 289 289 289 288 288 288 287 287 287 286 286 285 285
314 315 315 315 316 316 315 316 318 316 315 316 316 315 314 314 314 313 313 313 313 313 313 313 312 312 313 313 313 313 313 313 314 313 308 306 308 307 307 306 305 305 304 303 302 301 301 300 299 299 298 298 298 298 297 297 297 296 296 295 295 294 294 294 294 293 293 292 292 292 291 291 291 291 291 291 291 291 291 290 289 289 288 288 289 289 288 288 288 287 287 286 286 286 285 285 285
315 315 316 317 317 316 315 316 317 314 315 318 318 315 313 313 313 312 313 313 313 313 313 314 313 313 312 313 313 312 313 313 317 319 311 305 306 306 306 305 305 305 303 303 302 301 300 300 299 299 298 298 297 297 297 297 296 296 296 295 295 294 294 294 293 293 293 292 292 291 291 291 291 290 291 291 291 291 290 290 289 289 288 288 288 288 288 288 288 287 286 286 286 285 285 285 285
316 316 316 317 316 316 315 315 318 314 314 319 319 315 313 312 312 312 313 312 313 313 314 314 314 315 314 313 314 313 313 314 316 320 313 306 305 304 304 304 304 304 303 302 301 301 300 299 299 299 298 298 297 297 297 297 296 296 295 295 295 294 294 293 293 293 293 292 292 291 291 291 290 290 290 290 290 290 290 289 289 288 288 288 288 288 288 288 287 287 286 285 285 285 285 285 285
316 317 316 316 316 316 315 315 318 317 317 317 315 315 314 314 314 314 314 314 313 313 313 314 314 314 315 315 315 314 314 315 316 318 313 308 306 304 303 303 303 302 302 301 301 301 300 300 299 299 298 298 297 297 297 296 296 295 295 294 294 293 293 293 292 292 292 292 292 291 291 291 290 290 290 290 290 290 289 289 288 288 288 288 288 288 288 288 287 286 286 285 285 285 285 285 284
315 318 319 317 316 316 316 316 316 318 322 319 315 318 318 318 318 315 315 316 315 314 314 314 314 313 314 314 314 315 315 316 317 316 312 309 306 303 302 302 302 301 301 301 301 301 301 300 300 299 298 298 297 297 296 296 295 295 294 294 293 292 292 292 292 292 292 292 291 291 291 291 290 289 289 290 290 289 289 288 288 288 288 288 288 288 288 287 287 286 285 285 284 285 285 284 284
315 321 324 319 317 318 318 319 318 322 327 320 316 321 321 319 320 317 317 317 316 316 315 314 314 313 313 314 314 314 316 318 318 313 310 308 306 304 302 300 301 301 301 301 301 301 301 300 299 299 298 298 297 297 296 296 295 295 294 294 293 292 292 292 292 292 292 291 291 291 291 291 290 289 289 289 289 289 289 288 288 288 288 288 288 288 287 287 287 286 285 284 284 284 284 284 284
316 324 329 323 321 322 321 321 323 326 325 318 317 321 321 319 318 318 319 319 319 317 316 315 314 314 313 313 314 313 315 319 318 313 309 307 306 304 302 300 301 301 301 301 301 300 300 300 299 299 298 298 297 297 296 296 295 295 294 294 293 293 292 292 292 292 291 291 291 291 291 291 290 289 289 289 289 288 288 288 288 287 287 287 287 287 287 287 287 286 285 284 284 284 284 283 283
318 322 326 324 323 323 322 320 323 326 322 318 320 320 320 319 317 317 317 316 317 316 316 316 315 315 314 313 314 313 315 317 317 314 310 307 305 303 301 301 301 301 301 300 300 300 300 299 299 298 298 297 297 296 296 296 296 295 294 294 293 293 293 292 292 292 292 291 291 291 291 290 290 289 288 288 288 288 288 288 287 287 287 287 287 287 287 287 287 286 285 284 283 283 283 283 283
320 321 325 329 328 324 321 318 321 325 322 319 322 320 319 319 316 317 316 315 316 315 315 315 315 316 315 314 314 313 314 317 316 314 310 307 304 302 302 301 300 300 301 300 300 300 299 299 299 298 298 297 297 296 296 296 295 295 294 294 293 293 293 292 292 292 291 291 291 291 291 290 289 289 288 288 288 288 287 287 287 287 287 287 287 287 287 287 287 286 284 283 283 283 283 283 283
318 321 325 329 331 329 327 327 323 322 320 320 323 320 318 318 318 318 316 315 316 314 314 315 314 316 315 314 314 314 314 316 316 313 310 306 302 301 301 300 300 300 300 300 299 299 299 298 298 298 298 297 297 296 296 296 295 295 294 294 294 293 293 292 292 291 291 291 291 291 290 290 289 289 289 288 288 287 287 287 287 287 286 287 286 286 287 287 286 285 284 283 283 283 283 282 282
318 325 326 325 329 330 328 326 321 319 319 320 322 320 317 317 317 316 316 315 315 314 315 316 315 315 315 315 315 314 314 316 316 314 311 307 304 302 301 299 299 299 299 299 299 298 298 298 298 297 297 297 296 296 296 295 295 295 294 294 294 293 293 292 292 292 291 291 291 291 290 289 289 289 289 288 288 287 287 286 286 286 286 286 286 286 286 286 286 285 284 283 283 283 282 282 281
318 325 323 321 324 324 322 323 323 322 320 319 319 318 317 316 316 316 316 317 316 314 315 316 316 316 316 316 315 314 316 318 317 314 311 308 306 304 302 299 298 298 298 298 298 298 298 298 297 297 297 297 296 296 295 295 295 295 294 294 294 293 293 293 292 292 291 291 291 290 290 289 289 289 289 288 288 287 287 286 286 286 286 286 286 286 286 286 286 284 283 283 283 282 281 281 281
318 321 322 321 321 320 320 326 327 321 321 321 317 317 318 316 318 319 317 317 318 316 315 316 316 318 318 316 315 316 319 319 316 314 311 308 306 305 302 299 298 298 298 298 298 298 297 297 297 297 297 297 296 296 295 295 295 295 294 294 294 293 293 293 292 292 292 291 291 290 290 290 289 289 289 289 289 288 287 287 287 287 286 286 286 286 286 286 285 284 283 282 282 281 281 280 280
316 317 321 319 324 328 324 324 323 318 326 328 317 318 323 318 319 324 319 315 316 315 315 315 315 317 318 316 316 319 322 319 315 313 311 308 306 304 302 300 299 299 298 298 298 298 297 297 297 297 297 296 296 296 295 295 295 294 294 294 294 293 293 293 292 292 292 291 291 291 290 290 290 290 290 290 289 288 287 287 286 286 286 286 286 286 286 285 284 283 282 282 281 281 280 280 280
317 318 319 315 322 328 319 319 321 317 324 325 317 322 328 318 315 319 317 316 316 315 314 314 314 315 316 316 319 323 322 319 315 313 311 309 307 304 300 299 299 299 298 298 298 297 297 297 297 297 296 296 296 295 295 295 295 294 294 294 293 293 293 292 292 292 292 291 291 291 291 290 290 290 290 289 288 287 287 286 286 286 286 286 286 286 286 284 283 282 282 281 281 281 280 280 280
318 317 319 316 319 321 317 322 323 317 318 319 316 321 322 317 316 316 315 315 316 316 314 313 313 315 315 316 320 324 322 319 316 314 312 310 308 304 300 299 300 299 298 298 298 298 297 297 297 296 296 296 296 295 295 295 294 294 294 294 293 293 293 292 292 292 291 291 291 291 291 290 290 290 289 288 288 287 287 286 286 286 286 286 286 285 285 284 283 282 281 281 281 280 280 280 279
318 319 318 316 319 321 321 325 325 320 319 319 317 318 316 316 318 318 318 317 316 317 316 313 313 313 314 314 319 324 321 316 314 313 311 310 309 306 301 299 300 299 299 298 298 298 297 297 297 296 296 296 296 295 295 295 294 294 294 293 293 293 293 292 292 292 291 291 291 290 290 290 289 289 289 288 287 287 286 286 286 286 285 285 285 285 284 283 282 281 281 281 280 280 279 279 279
316 320 319 319 322 323 323 323 322 321 320 319 318 317 316 315 315 316 317 317 318 318 316 314 313 312 313 312 316 321 318 315 315 314 313 311 310 307 302 300 300 300 299 299 298 298 297 297 297 296 296 296 296 295 295 294 294 294 294 293 293 293 292 292 292 292 291 291 291 290 290 290 289 289 288 288 287 286 286 286 285 285 285 285 285 284 283 282 282 281 280 280 280 279 279 279 279
313 315 317 318 319 323 324 321 321 321 319 319 319 318 318 316 315 315 315 316 317 316 314 314 313 312 312 312 314 318 318 317 316 315 313 311 310 306 302 300 300 300 299 299 298 298 297 297 297 296 296 296 295 295 295 294 294 294 293 293 293 292 292 292 292 291 291 291 291 290 290 290 289 288 288 287 287 286 286 286 285 285 285 285 284 283 283 282 281 280 280 280 279 279 278 278 278
314 315 318 316 314 320 322 318 318 319 318 318 319 319 318 315 316 315 314 316 318 317 316 314 313 312 312 313 314 317 318 317 315 314 312 311 310 307 302 301 301 300 300 299 298 297 297 297 296 296 296 295 295 295 295 294 294 294 293 293 293 292 292 292 291 291 291 291 290 290 290 289 289 288 288 287 287 286 286 286 285 285 285 285 284 283 282 281 280 280 280 279 279 278 278 278 277
316 316 317 316 315 318 318 316 318 318 317 317 317 318 317 315 315 314 313 315 316 317 318 316 314 314 314 315 315 315 316 316 315 314 312 311 311 309 304 302 301 301 300 299 298 298 297 297 297 296 296 295 295 295 295 294 294 293 293 293 292 292 291 291 291 291 290 290 290 290 289 289 288 288 287 287 286 286 286 285 285 285 285 284 283 283 282 281 280 280 279 279 278 278 278 277 277
Wind_Speed
3 3 5 5 7 8 6 2 2 3 2 2 4 2 4 3 2 2 2 1 2 1 1 3 3 3 4 3 7 7 3 2 4 4 2 5 14 16 16 16 13 11 10 9 9 10 11 10 9 9 7 6 6 6 7 8 8 8 8 7 8 8 9 9 8 9 9 9 7 7 8 8 6 6 5 2 2 3 3 4 5 5 6 7 6 7 7 8 9 9 8 6 4 5 5 6 6
2 2 4 4 5 4 2 3 3 3 3 3 5 3 5 2 2 2 4 3 3 3 2 4 5 6 5 6 8 4 3 2 2 3 2 12 17 16 19 17 14 13 13 12 10 11 12 12 11 11 10 8 8 8 8 9 9 9 9 9 9 9 9 9 8 9 9 8 7 7 7 7 7 8 7 4 4 4 4 4 4 4 5 5 3 5 5 5 6 6 4 3 4 5 5 4 4
2 3 6 4 3 1 1 3 2 0 2 3 5 4 2 3 1 2 2 3 5 5 4 4 5 4 4 5 4 1 1 1 4 4 4 16 17 17 22 18 16 16 15 13 11 11 12 13 13 13 11 11 10 9 9 9 9 9 9 9 9 9 9 9 9 9 9 8 8 7 7 7 8 9 8 6 5 4 4 4 4 4 4 4 4 5 5 4 3 2 2 4 5 6 7 6 6
3 4 6 5 2 2 3 2 2 3 2 4 3 6 2 5 5 3 2 4 4 3 4 3 3 1 2 3 2 3 3 2 6 7 7 17 19 22 25 19 17 17 15 13 12 11 11 12 12 13 12 11 11 10 10 10 10 9 9 9 8 9 9 9 9 8 8 7 6 6 6 6 7 7 6 5 5 4 4 3 3 3 4 5 5 6 5 3 3 3 4 5 6 7 7 7 7
3 3 2 3 3 1 2 1 1 2 4 4 2 6 4 7 7 5 3 2 0 2 3 4 2 2 2 2 1 3 4 2 6 10 12 19 22 26 26 22 18 16 15 13 12 11 12 12 11 12 11 11 11 10 10 10 10 9 8 8 7 7 7 8 7 6 5 5 4 5 5 5 5 5 5 5 5 5 5 5 5 4 4 5 5 6 5 5 5 5 6 7 7 8 8 8 8
3 4 1 2 1 1 2 1 2 3 5 4 3 5 5 7 8 7 4 2 3 3 2 4 3 1 2 1 1 3 5 6 8 12 19 22 25 27 25 22 19 17 16 14 13 12 12 11 11 11 10 10 10 10 9 9 9 8 8 8 7 7 7 6 6 5 5 4 4 4 5 5 4 4 4 4 4 5 5 6 6 6 6 5 6 6 6 6 7 7 7 7 8 8 8 8 9
4 4 1 2 1 1 3 3 4 4 6 5 5 4 7 7 7 8 5 2 3 3 2 1 5 5 1 1 2 1 2 7 10 14 22 25 27 27 24 23 21 19 17 15 14 14 13 12 12 12 11 11 10 10 9 9 9 8 8 7 7 6 6 6 5 5 5 5 4 5 5 4 4 4 4 4 4 5 5 5 6 6 6 6 7 7 7 7 7 8 8 8 8 8 8 9 9
2 1 1 4 2 2 2 4 4 4 5 4 4 5 8 9 8 8 6 3 1 1 0 1 5 5 2 2 2 2 2 6 9 17 24 27 30 27 25 25 23 20 18 16 15 15 15 13 14 13 12 12 11 11 10 10 9 9 8 7 7 6 6 5 5 5 4 5 5 5 5 5 5 5 5 6 6 6 7 7 7 8 8 8 8 8 8 8 8 8 8 9 9 9 9 9 9
0 0 2 3 1 2 2 4 4 4 6 5 3 4 7 9 8 7 6 2 2 4 3 4 6 3 3 2 1 3 2 8 13 20 26 29 31 27 27 27 25 23 20 17 16 16 16 16 15 14 14 13 12 11 10 9 8 8 7 6 6 5 5 4 4 4 4 5 6 6 7 8 8 8 8 8 9 9 10 10 10 10 11 11 11 11 10 11 11 11 11 10 10 10 10 10 10
1 1 2 2 2 2 4 3 4 4 6 5 4 5 7 8 6 7 7 4 4 5 4 5 4 2 2 3 2 2 4 14 21 24 27 30 29 27 27 26 25 24 22 19 17 17 18 18 17 16 15 13 12 11 10 9 7 7 6 5 5 5 5 4 5 5 6 6 7 8 9 9 10 10 10 10 10 11 11 11 11 11 12 12 12 12 12 12 12 12 12 12 12 13 12 12 12
2 2 2 2 1 2 4 4 4 5 6 3 3 4 7 7 6 5 6 4 4 6 4 4 2 3 2 2 2 1 12 21 24 27 28 29 28 26 27 25 24 22 22 20 18 18 18 19 18 17 16 14 12 11 9 8 8 7 6 6 5 5 6 6 6 7 7 8 9 9 10 10 10 10 10 10 10 10 11 11 11 10 10 11 11 11 11 12 12 12 12 12 13 13 14 13 13
2 3 3 2 2 4 4 3 6 6 7 3 2 4 3 6 5 4 6 5 5 6 6 6 4 5 3 3 2 4 18 23 22 26 28 28 26 26 26 25 24 21 20 19 20 20 19 19 19 18 16 14 13 12 11 10 9 8 8 7 6 7 7 8 8 9 9 9 10 10 10 10 10 10 10 10 10 10 10 10 10 10 10 10 10 10 10 11 11 11 12 12 12 13 13 13 14
1 1 4 1 4 3 3 3 6 5 5 3 3 4 1 4 3 6 6 5 7 6 6 9 5 6 4 2 1 4 14 21 21 25 29 27 24 25 26 25 23 21 19 18 21 21 21 20 19 18 17 15 14 13 11 11 10 10 9 9 9 9 9 10 10 10 10 10 10 10 10 10 10 10 9 9 9 9 9 9 10 10 10 10 10 11 11 11 12 12 12 12 12 12 12 12 13
2 2 4 2 2 1 4 3 5 4 4 4 2 2 1 2 4 5 5 3 7 6 5 9 7 5 3 1 1 4 11 21 23 25 28 25 23 25 25 24 23 21 19 19 21 22 22 21 20 18 17 15 14 14 13 12 12 12 11 11 11 11 11 11 11 11 11 11 10 10 10 10 10 10 10 10 9 10 10 10 11 11 11 12 12 13 13 14 14 14 14 14 14 13 12 12 12
2 0 3 1 3 3 3 3 5 4 4 4 2 2 1 1 1 2 3 4 6 4 1 5 6 3 4 6 5 7 17 26 26 27 27 24 23 23 23 23 22 21 20 20 21 23 23 21 20 19 18 17 16 15 14 14 14 13 13 13 13 13 13 13 13 13 12 12 12 12 12 11 11 11 11 11 11 11 11 12 13 13 13 13 14 14 14 15 16 16 16 16 16 15 15 14 14
3 2 3 1 3 2 3 3 3 4 5 5 3 3 2 4 1 1 3 3 2 3 1 4 4 2 5 7 6 9 24 30 28 28 27 23 22 22 22 22 22 22 21 21 22 23 23 22 21 20 20 19 18 17 16 16 16 15 15 15 16 16 15 15 15 14 14 13 13 13 13 13 12 12 12 11 12 12 12 13 14 14 14 14 15 15 15 16 16 17 17 17 17 16 16 16 15
3 4 2 2 3 2 3 3 2 3 5 4 3 2 4 5 3 1 1 3 2 2 2 4 3 1 2 5 5 17 30 32 31 29 26 24 23 22 22 22 22 23 23 23 23 23 23 23 23 22 21 20 19 18 18 18 17 17 17 17 17 17 17 17 16 16 15 15 14 14 13 13 13 12 12 12 12 12 12 13 14 14 14 15 15 16 16 16 16 17 17 17 17 17 17 16 16
3 3 2 3 3 4 5 4 3 2 2 4 4 4 6 3 3 0 1 1 2 3 3 4 2 4 3 7 15 25 33 33 32 31 27 25 23 23 23 25 26 26 26 24 24 25 25 25 25 24 24 22 21 20 20 19 19 19 19 18 18 18 18 17 17 16 15 14 13 12 13 12 11 11 11 11 11 12 12 13 13 13 14 14 14 15 15 15 15 16 16 17 17 17 17 17 17
3 3 2 4 5 6 5 4 4 2 3 4 4 6 6 5 4 2 2 5 3 4 5 3 4 2 4 10 20 28 32 32 32 31 28 26 26 25 24 26 27 28 29 29 29 28 27 27 26 26 25 24 23 21 21 21 21 20 20 19 19 18 18 17 16 15 14 13 13 12 12 12 11 11 11 11 11 11 11 11 11 12 13 13 13 13 14 14 14 14 15 16 16 16 17 17 17
2 3 2 6 7 5 6 4 2 2 3 3 2 3 4 5 4 3 4 6 5 8 7 5 8 8 6 8 17 25 27 28 29 28 27 27 28 27 27 28 30 33 35 34 32 30 29 29 28 27 26 25 23 22 22 22 21 21 20 20 19 19 18 17 16 14 13 13 14 13 12 12 11 10 10 10 10 9 9 9 10 11 11 12 13 13 14 13 14 14 14 14 15 16 16 17 17
2 4 5 8 4 4 8 6 2 2 1 3 1 1 3 5 4 4 4 3 7 9 9 10 12 12 11 9 14 21 22 23 25 25 25 25 27 27 29 32 34 35 36 34 33 32 31 30 30 29 28 26 24 24 24 23 22 22 21 20 19 18 17 16 15 14 14 13 14 13 12 12 10 9 9 9 8 7 7 7 8 10 10 11 12 13 14 14 14 14 14 14 15 16 17 17 17
2 5 8 8 4 5 8 6 3 3 3 2 1 2 5 3 3 5 7 7 10 7 9 12 13 12 14 15 15 17 17 19 21 23 24 25 27 28 28 30 30 29 31 34 35 35 34 32 31 30 29 27 25 25 24 23 24 23 22 21 20 18 17 17 16 15 14 14 14 13 12 11 10 9 7 7 7 5 5 6 7 8 9 11 12 13 14 14 14 14 14 14 15 16 16 17 18
4 6 6 8 7 6 6 4 4 3 2 3 3 3 3 2 5 6 9 15 13 6 8 10 11 12 16 18 16 15 16 16 20 25 28 28 29 31 31 31 31 31 33 36 37 36 35 34 33 32 31 29 27 25 25 25 24 24 23 22 21 20 19 18 17 16 15 14 13 12 11 10 9 8 6 6 5 4 4 5 5 7 8 10 12 13 14 14 15 14 14 14 15 15 16 16 17
7 7 5 7 7 7 7 6 5 5 6 7 3 1 3 6 7 3 9 18 14 7 7 8 7 8 14 16 15 17 18 19 24 31 34 34 36 37 35 34 34 34 34 36 37 37 37 36 35 34 32 31 28 27 26 26 25 24 23 22 22 21 20 20 18 17 15 14 13 12 10 10 9 7 6 5 4 4 3 4 5 6 8 10 12 13 13 14 14 14 14 15 15 16 16 16 17
7 7 5 5 5 7 7 6 6 6 6 5 1 5 9 10 4 5 14 17 11 8 8 9 6 5 11 14 16 16 16 18 23 27 30 32 34 33 32 31 31 32 34 36 37 38 38 38 37 36 34 32 30 29 29 27 26 25 24 24 22 21 21 20 19 18 16 15 14 12 11 10 9 7 6 5 4 3 3 3 4 6 8 10 11 12 13 13 13 14 14 14 15 16 17 17 18
7 7 5 4 6 7 7 8 9 7 5 4 4 10 11 6 3 9 19 18 12 8 8 11 9 7 9 13 15 16 15 17 20 24 28 30 28 27 30 31 31 34 37 37 37 39 39 39 38 38 36 34 32 32 31 29 28 27 26 25 24 23 22 20 19 18 17 16 15 13 12 10 9 8 7 5 4 3 2 2 3 6 8 9 11 12 13 13 14 14 14 14 15 16 17 17 18
4 4 5 6 8 8 6 8 11 7 5 7 9 13 10 2 2 9 17 13 9 9 10 11 9 11 11 11 12 15 15 19 24 25 23 23 24 28 32 33 35 37 37 37 39 40 39 40 40 39 38 36 34 34 33 32 31 30 28 27 25 24 23 21 20 19 19 18 16 15 13 11 10 9 7 6 4 3 2 1 3 5 7 9 11 11 12 13 13 14 14 14 15 15 16 16 16
2 3 7 11 8 9 9 10 12 6 5 9 11 9 8 0 4 15 19 7 5 9 11 11 10 12 11 11 11 11 12 20 26 22 18 22 29 32 33 36 39 37 37 40 40 39 39 41 41 40 39 37 36 36 35 34 33 31 30 28 27 25 24 22 21 21 21 19 17 16 14 12 11 10 9 7 6 4 2 1 2 4 6 8 9 10 11 12 12 13 13 13 14 14 15 15 15
3 2 5 13 7 9 15 13 11 7 4 7 8 3 9 6 11 21 20 7 4 7 9 10 11 12 11 10 10 9 12 17 19 20 25 31 34 35 36 40 41 38 39 41 39 39 41 41 41 40 39 38 38 38 36 35 34 33 31 29 28 26 25 23 23 22 21 20 18 16 15 14 12 11 10 9 7 5 3 2 0 3 5 7 8 9 10 11 11 12 12 13 13 14 15 15 15
4 0 1 9 7 8 14 8 9 8 5 9 9 2 9 12 17 20 16 9 8 9 11 11 10 10 10 10 9 10 12 12 16 23 32 34 34 35 37 39 40 39 38 37 39 41 41 41 41 40 40 40 39 38 37 36 35 34 32 30 29 28 26 25 25 23 22 21 19 18 17 16 14 13 12 10 9 7 5 3 0 3 4 5 7 7 9 10 11 12 12 12 13 14 15 15 16
3 2 2 4 2 8 10 3 4 4 3 9 10 4 10 13 16 14 11 10 9 10 13 12 10 9 9 9 10 12 12 13 20 28 33 34 33 34 36 36 37 38 37 38 41 42 41 42 41 41 41 40 40 39 38 36 36 34 33 32 31 29 28 27 26 25 23 22 20 19 18 17 15 14 13 11 10 7 5 4 1 2 3 4 5 6 8 10 10 11 11 12 13 14 14 14 16
1 1 4 3 4 8 11 6 6 6 3 5 9 4 11 15 15 12 9 9 10 11 13 11 11 11 10 10 10 12 12 13 20 27 31 32 32 33 34 35 36 39 39 40 41 40 41 42 41 41 41 41 40 39 38 37 35 34 33 33 31 30 29 29 28 26 24 23 22 21 19 18 16 15 13 12 10 8 6 5 3 1 1 2 3 5 7 9 9 10 10 12 13 13 14 15 16
2 3 6 5 5 6 8 7 4 8 5 4 8 6 7 11 11 11 8 7 10 11 12 12 12 12 11 10 10 11 11 11 13 21 28 30 31 34 35 35 37 41 42 41 41 41 42 42 41 41 41 41 40 39 38 37 35 34 34 33 32 31 30 30 29 27 25 24 23 22 21 19 18 16 14 13 11 9 7 6 4 3 1 1 2 4 6 7 8 9 9 10 11 12 13 16 18
4 3 5 6 7 6 6 7 3 6 8 7 10 8 11 12 8 9 8 6 8 10 12 12 11 11 11 10 10 11 11 11 12 17 25 29 32 36 36 37 38 40 41 40 41 42 42 42 41 41 40 40 39 39 38 37 36 34 33 32 31 31 30 30 29 28 27 26 25 24 22 21 19 17 16 14 12 10 9 7 5 4 2 0 2 3 4 6 7 8 9 8 9 11 13 15 18
4 5 5 5 7 7 10 8 2 6 6 6 8 9 15 17 13 12 13 8 6 9 11 11 11 12 11 10 11 12 12 13 16 18 23 30 33 35 35 36 37 39 40 39 40 41 40 40 40 39 40 40 40 39 38 37 35 34 33 31 30 30 30 30 29 28 27 26 26 25 24 23 21 19 17 15 14 12 10 8 7 5 3 1 1 2 3 5 6 7 9 8 9 10 13 15 17
8 8 6 7 7 8 12 11 5 8 5 6 10 12 15 18 17 15 16 13 10 11 10 9 11 11 11 11 11 12 12 15 17 17 21 29 33 34 35 36 37 39 39 39 40 40 40 40 40 39 40 41 40 39 38 37 35 34 33 31 31 31 31 30 29 29 28 28 27 26 25 24 22 20 18 17 15 13 11 9 8 6 4 3 1 1 2 4 5 7 8 9 11 11 13 14 16
9 9 9 10 9 11 13 11 7 8 6 8 12 15 16 17 19 17 14 12 11 14 12 11 12 12 12 13 14 14 15 15 13 13 20 28 32 33 35 35 34 35 36 38 39 40 41 41 41 41 42 42 42 42 41 40 39 37 36 35 35 34 33 32 31 30 30 29 28 26 26 24 23 21 19 18 16 14 13 10 9 7 6 4 2 1 2 4 5 7 8 9 11 12 13 13 16
11 10 10 10 8 12 14 9 7 6 5 8 11 14 16 16 18 17 11 9 12 15 15 15 16 14 13 14 17 16 15 13 8 8 16 23 28 30 32 33 34 35 35 38 40 41 41 42 43 43 43 44 44 45 44 44 43 42 40 39 38 37 36 36 35 34 32 30 29 28 26 25 23 22 20 19 17 15 14 12 10 9 7 5 3 2 2 3 5 7 8 9 9 11 13 11 14
10 8 8 8 6 11 12 8 7 4 5 8 9 11 13 14 17 16 12 11 12 15 16 18 17 13 13 15 16 17 15 12 9 8 10 17 24 28 30 31 34 37 37 38 40 41 41 42 43 43 44 46 45 46 46 45 43 42 40 39 39 38 37 37 36 35 33 31 30 29 27 26 24 23 21 20 18 16 14 13 11 10 8 6 4 2 2 3 5 6 6 7 7 9 11 9 11
8 9 8 8 7 8 10 6 4 3 4 6 7 8 9 9 12 15 15 14 13 15 16 18 17 14 16 18 15 15 16 13 11 9 7 11 17 23 27 29 32 34 34 37 39 40 42 42 44 44 45 46 46 46 46 43 41 39 36 35 36 35 34 35 33 32 32 31 31 29 28 27 26 24 22 21 19 17 15 13 12 10 8 6 4 3 3 3 4 5 5 6 6 8 9 8 10
11 10 8 11 11 12 13 8 4 4 4 5 6 9 8 8 13 16 13 13 13 14 16 17 17 15 16 18 16 16 16 13 12 10 8 9 13 20 26 29 31 33 35 38 41 42 43 44 45 46 45 46 46 46 44 41 38 37 33 29 30 29 28 30 31 31 33 33 33 33 31 30 28 26 24 21 19 18 16 14 13 11 9 7 5 4 4 4 4 4 4 4 4 6 8 7 10
11 8 11 15 15 13 13 8 6 5 6 4 3 8 8 8 13 16 10 8 10 10 13 17 17 16 14 16 18 17 14 12 11 10 11 12 12 17 23 27 30 32 36 40 43 44 44 45 46 45 45 45 45 45 44 42 40 38 36 33 32 30 27 32 36 37 38 38 37 36 34 32 30 27 25 23 21 19 17 15 13 12 10 8 6 5 5 4 4 4 4 4 4 4 7 9 11
10 6 11 14 12 11 11 6 3 4 6 4 3 3 8 5 8 11 9 8 11 9 11 15 14 13 12 13 16 15 11 9 9 9 11 12 12 13 18 25 31 34 37 40 42 43 43 44 45 45 45 44 43 44 43 43 41 41 41 39 38 36 33 36 39 40 41 40 39 37 35 33 31 29 27 25 23 20 18 16 14 12 11 9 8 7 6 5 5 4 4 4 4 4 6 9 12
8 3 7 9 8 9 7 4 4 4 5 4 3 2 8 11 7 10 11 11 12 12 12 13 12 12 13 14 15 14 11 9 9 9 11 12 13 15 19 26 33 35 36 37 39 41 42 42 44 44 44 43 43 43 44 45 44 42 42 39 37 38 37 37 38 38 39 39 38 38 36 34 32 30 28 27 24 22 19 17 16 14 12 11 10 9 7 6 5 5 5 5 5 6 6 8 11
6 1 4 4 4 4 1 1 3 2 5 5 4 5 4 15 8 10 13 12 12 14 15 14 13 14 14 14 15 15 12 9 10 11 13 13 14 18 24 29 32 33 34 37 39 40 40 40 41 42 42 42 42 43 45 46 45 43 41 39 37 37 36 34 35 36 37 37 37 37 36 35 33 31 29 27 25 23 20 18 17 15 14 12 11 10 8 7 6 6 6 6 6 7 7 8 11
3 4 3 4 4 3 5 1 1 3 5 6 5 7 3 15 9 8 8 9 10 13 14 14 14 14 14 13 14 13 11 8 10 11 12 13 16 22 25 26 28 31 33 36 37 37 38 38 39 41 42 42 42 43 45 46 45 43 42 41 39 36 34 32 32 33 35 36 36 36 36 35 34 32 30 27 25 23 21 19 18 16 14 13 12 11 9 8 7 7 6 6 7 7 7 8 10
1 5 5 6 5 5 4 1 4 2 9 6 9 12 7 9 6 7 6 6 11 12 9 11 12 12 13 13 12 11 10 9 9 10 10 10 14 19 21 22 26 29 31 33 34 35 37 37 39 41 41 42 42 44 45 46 45 44 44 43 41 38 36 34 33 34 35 35 35 36 36 35 35 33 31 29 26 24 23 21 19 17 15 14 13 12 10 8 7 7 7 7 7 7 8 9 11
4 4 4 4 5 4 5 4 5 2 9 5 12 14 11 10 6 2 2 4 8 11 9 10 13 12 14 13 10 10 10 9 8 8 8 8 10 13 16 20 24 27 29 32 34 35 36 37 39 39 41 42 43 45 46 46 46 46 45 44 43 41 39 38 38 37 38 38 38 37 36 35 35 34 32 30 28 26 25 23 21 19 17 16 14 12 10 9 8 8 8 8 8 8 9 11 14
5 5 4 1 4 3 3 4 0 4 7 5 10 9 8 13 7 2 7 6 5 9 9 11 13 13 14 12 10 9 8 8 8 8 8 9 10 11 13 17 22 27 31 34 35 36 37 38 39 40 42 44 44 44 46 46 47 47 46 45 44 43 41 42 41 40 41 41 40 39 38 37 37 36 35 34 32 30 28 26 24 22 19 17 15 13 11 10 9 9 9 9 9 10 11 13 15
6 6 6 4 3 1 2 4 3 5 7 6 6 7 5 10 5 7 13 12 11 11 11 13 13 13 14 12 10 8 7 7 8 8 9 10 11 11 12 17 22 26 31 33 35 37 37 38 40 42 42 43 43 44 45 46 47 48 47 46 45 43 43 43 43 42 42 42 42 42 43 42 42 41 40 38 35 32 30 27 25 22 19 17 16 14 12 11 10 10 10 11 11 12 13 14 15
7 6 6 5 5 4 4 5 7 7 6 6 3 6 5 7 3 7 11 11 10 10 12 12 11 11 11 9 9 7 7 7 6 8 9 11 12 12 12 17 22 25 29 32 34 37 37 38 41 43 42 42 44 45 45 47 49 48 47 46 45 44 44 43 43 42 43 43 43 43 44 44 44 44 42 40 37 33 31 27 24 22 20 19 17 15 13 11 11 11 12 13 13 13 13 14 14
4 5 5 4 5 7 5 6 7 3 3 6 3 5 6 5 6 8 8 9 8 8 11 10 10 11 9 8 9 8 7 7 6 8 9 10 10 10 11 16 21 23 26 30 33 36 38 40 41 42 43 43 44 45 47 49 48 46 46 46 45 45 43 42 42 42 43 44 44 44 44 44 43 43 41 39 36 33 31 28 26 24 22 20 18 15 14 12 13 13 14 14 13 13 13 14 13
3 4 4 5 4 7 5 6 4 1 4 8 6 7 6 6 10 8 7 10 9 7 9 9 11 13 11 10 10 8 7 7 8 9 9 10 9 9 12 16 19 22 26 31 36 39 42 42 41 42 42 41 43 46 47 47 46 45 46 46 46 45 45 44 44 44 43 43 43 43 43 42 42 41 40 38 35 33 31 29 27 25 23 20 18 16 14 14 14 14 14 14 13 13 14 14 13
6 4 6 2 3 2 3 1 2 2 7 8 9 14 10 6 9 5 2 5 8 7 10 11 12 14 13 12 10 8 8 8 8 8 7 7 8 9 12 18 24 27 30 33 37 39 40 40 41 42 41 43 46 48 46 45 45 45 46 47 48 47 47 46 44 43 42 41 41 41 41 41 41 40 38 36 34 33 31 28 27 25 23 21 18 16 16 15 15 14 14 14 13 13 14 14 13
5 4 2 4 1 2 2 3 3 5 8 7 10 16 12 8 10 8 4 6 9 10 12 13 13 13 12 12 12 9 7 6 7 8 7 7 9 10 13 19 25 28 31 33 34 33 34 37 40 40 42 45 46 44 43 43 44 45 46 47 48 47 46 45 43 41 41 42 42 42 41 41 40 39 38 37 35 34 32 30 28 25 23 21 19 17 16 15 15 15 14 14 14 13 14 14 13
1 1 2 1 3 4 3 4 3 5 9 8 10 12 10 9 7 7 8 8 9 10 10 10 12 13 12 12 12 8 6 8 8 9 9 10 11 12 15 21 25 29 31 30 30 31 35 37 37 37 40 41 39 40 42 43 44 45 44 44 44 45 44 44 43 42 42 43 43 43 42 41 41 40 39 38 37 36 34 32 29 27 24 22 20 18 17 16 15 15 14 14 14 14 15 15 14
3 2 3 3 2 2 1 2 2 4 7 7 7 9 10 9 3 1 6 5 7 8 7 9 11 12 12 11 9 8 8 9 9 9 9 10 10 11 15 21 23 24 24 24 28 32 34 34 35 37 38 37 38 41 43 44 45 44 43 43 44 44 43 42 42 43 43 43 43 43 43 42 41 41 41 40 39 37 35 32 30 27 25 22 20 18 17 16 16 15 15 15 15 15 16 16 15
7 7 8 7 6 3 3 6 5 3 5 6 8 9 9 9 6 4 6 5 5 7 7 8 10 11 11 11 11 10 9 9 10 9 9 9 9 10 13 18 19 20 22 25 29 31 31 34 37 38 37 37 40 42 44 45 44 42 43 43 42 41 41 40 41 42 43 43 43 44 44 43 43 43 42 42 40 38 35 33 30 28 25 23 21 19 18 18 17 16 16 16 16 16 16 16 15
Wind_Direction
105 97 69 48 7 353 334 57 65 317 85 279 269 222 265 248 197 96 76 127 88 12 41 81 66 68 97 131 145 138 104 158 173 143 205 171 145 149 145 143 155 167 163 156 157 158 149 140 138 130 127 141 136 121 113 104 104 102 107 108 98 99 95 97 101 97 92 96 106 104 96 96 99 90 90 87 60 67 76 81 93 96 73 68 65 58 59 56 58 62 57 46 48 58 60 56 40
105 74 55 36 355 1 296 86 84 318 47 298 278 199 238 317 40 118 178 168 138 187 131 98 84 84 98 120 132 113 36 18 112 126 145 144 145 151 147 145 158 165 158 154 156 153 144 135 132 128 123 124 120 112 107 103 102 98 98 97 98 97 94 97 97 97 96 101 106 102 94 91 89 80 81 85 78 78 82 85 86 89 71 67 74 63 59 53 54 68 63 27 20 26 24 27 19
74 39 27 17 339 43 16 45 97 190 46 263 277 252 208 73 103 124 174 154 162 168 106 76 66 79 50 62 101 90 213 214 118 110 127 153 157 157 152 150 159 164 159 160 165 155 142 138 135 133 129 123 119 116 116 111 105 101 100 97 97 97 95 97 95 96 95 98 97 95 94 88 84 79 78 79 76 73 72 74 71 70 63 58 58 54 52 42 37 48 1 334 337 345 346 347 345
74 43 15 25 32 31 55 49 162 157 237 235 272 274 198 140 167 130 123 164 178 134 85 64 48 27 49 82 113 82 157 195 151 137 150 173 170 158 155 157 164 168 166 171 177 163 148 145 140 140 139 130 125 124 123 117 113 110 108 106 103 100 99 98 97 99 97 100 101 99 101 95 91 86 83 80 75 67 60 58 60 59 57 56 50 52 49 25 1 349 342 336 335 337 337 337 338
72 54 358 36 77 34 82 115 182 152 228 211 266 275 204 157 160 152 148 156 174 87 114 117 90 298 75 141 177 128 164 122 152 151 151 175 170 157 158 162 169 173 175 181 181 169 155 151 142 142 141 136 132 131 131 128 130 132 132 133 130 124 118 115 112 113 112 107 104 100 97 97 96 92 87 81 72 62 55 50 49 48 48 53 49 45 37 19 8 358 351 348 344 344 342 339 338
41 36 6 35 111 150 94 262 281 258 240 196 246 263 184 163 159 150 128 60 19 28 85 115 148 157 74 358 50 147 173 130 152 164 157 166 167 160 159 163 173 176 178 183 183 173 158 154 150 149 150 150 149 146 147 146 148 151 150 149 147 145 140 138 134 128 122 113 105 99 94 94 92 90 86 79 71 61 55 50 46 45 43 44 47 43 35 23 14 8 358 354 350 348 347 345 341
23 20 28 39 2 56 104 226 239 249 252 200 210 218 169 171 159 135 130 93 19 353 18 127 145 114 137 202 88 115 165 147 156 171 164 159 162 160 157 164 174 175 177 180 176 170 162 161 163 163 164 162 162 160 159 158 158 159 159 158 156 153 151 149 145 139 132 123 111 104 102 100 97 95 90 83 78 69 62 57 53 51 49 48 50 48 42 31 21 16 8 3 0 358 356 354 351
27 7 77 82 22 7 125 245 245 216 253 238 203 187 168 167 155 136 157 166 125 214 312 214 125 98 255 171 138 280 148 164 169 169 162 154 158 158 159 169 173 172 177 174 166 169 169 168 169 169 168 167 165 162 161 160 160 161 162 162 160 158 155 152 150 146 139 132 123 117 113 111 109 106 102 96 90 84 79 74 69 64 62 58 55 54 49 41 33 29 24 20 16 14 11 8 5
270 128 48 84 84 323 272 269 267 233 254 260 230 189 168 164 153 138 155 162 144 168 200 185 127 124 230 158 187 289 123 155 156 158 157 155 158 157 165 177 178 175 178 177 171 174 172 170 172 171 168 168 165 162 161 159 159 160 159 156 154 151 148 145 144 138 130 124 116 114 109 107 105 101 98 93 90 86 81 75 71 65 62 58 55 53 49 45 39 35 33 30 28 26 25 23 19
334 95 83 82 110 290 295 266 251 265 259 229 207 188 168 168 153 140 147 166 165 155 203 171 119 166 183 164 206 292 167 154 150 154 159 158 157 161 170 180 184 181 180 181 179 178 175 171 171 172 169 167 164 162 160 160 162 164 162 158 151 147 145 141 137 132 126 120 113 108 103 101 97 95 90 86 84 80 77 72 68 63 60 58 54 51 49 47 41 37 34 33 31 28 26 27 28
17 335 97 80 71 242 263 254 251 273 279 254 222 208 175 160 137 147 146 156 168 143 173 147 136 212 149 194 259 226 163 158 157 158 162 161 160 167 173 180 188 187 182 179 179 179 176 173 172 173 169 167 166 165 166 170 175 176 175 167 158 154 147 142 136 131 126 120 116 110 104 101 95 93 89 86 82 79 78 75 71 67 63 59 54 51 48 46 42 39 36 36 35 33 31 29 29
67 318 76 105 207 216 228 257 273 275 294 312 258 255 183 136 120 173 167 155 160 142 171 174 173 169 151 252 276 141 156 165 169 163 162 163 165 172 175 180 186 190 186 178 177 178 178 176 174 173 170 171 172 173 178 180 183 182 179 173 168 162 151 146 138 132 128 122 118 112 109 105 101 98 93 90 86 83 80 78 78 73 68 63 59 53 48 46 42 40 38 37 36 36 38 37 33
132 206 86 164 207 205 257 276 281 291 309 292 226 264 50 111 167 198 174 158 159 154 198 195 158 137 170 247 255 161 168 177 174 165 164 165 170 173 174 179 184 188 187 180 178 179 180 180 178 176 175 178 180 181 184 185 186 183 180 177 171 165 156 149 141 136 132 126 122 117 114 110 106 103 99 96 92 90 86 85 84 79 75 69 64 59 55 52 48 47 45 42 39 38 39 40 36
181 189 117 241 260 235 259 269 286 298 291 266 246 268 53 110 216 188 148 165 186 182 218 197 145 125 186 186 206 218 192 184 174 168 167 169 173 172 175 179 183 187 188 184 181 182 182 183 183 180 181 184 186 186 188 189 187 184 180 176 169 164 157 151 147 143 139 136 132 128 124 119 115 112 109 106 102 97 92 91 86 80 76 71 67 62 59 56 52 50 49 45 43 42 40 40 38
182 221 109 222 314 308 244 232 262 262 255 244 211 185 121 270 220 145 161 191 225 230 209 181 150 137 192 184 221 220 188 181 172 169 169 172 176 175 179 179 182 187 189 187 185 187 186 186 185 184 187 188 190 190 191 190 186 183 177 172 168 163 159 155 151 149 147 145 142 138 133 127 123 118 114 109 105 98 92 88 83 78 75 71 65 60 59 55 50 47 45 42 41 41 39 38 38
141 96 72 320 275 284 249 233 248 243 251 234 209 133 109 294 325 102 231 163 227 275 123 186 192 172 177 188 224 186 173 173 169 169 168 169 174 177 181 181 185 187 189 191 189 191 189 189 189 189 192 191 192 192 191 189 183 179 175 172 168 164 162 158 155 154 153 151 150 144 135 128 122 117 114 108 102 97 90 84 78 74 70 66 59 55 54 49 46 42 40 38 36 36 36 36 36
68 82 90 275 241 229 231 235 243 218 249 257 272 136 145 285 310 102 261 123 150 251 212 226 224 108 174 193 176 157 161 164 165 167 166 167 170 172 178 182 185 185 189 194 194 194 192 192 193 193 194 193 195 192 189 186 180 177 175 172 168 166 164 162 160 157 157 156 154 144 130 120 117 116 112 104 98 92 84 78 74 69 63 59 55 50 48 45 43 39 36 34 32 31 31 32 32
66 94 161 234 225 217 207 213 237 198 219 239 246 202 163 237 266 239 332 270 207 219 248 249 275 10 63 138 142 149 156 160 164 165 166 169 170 171 178 183 185 187 188 192 196 198 196 195 195 197 196 194 194 193 189 185 180 178 175 173 170 169 166 164 162 159 158 153 146 136 125 118 117 114 107 98 92 86 80 76 73 67 62 58 52 48 45 41 39 36 34 31 30 28 27 27 26
127 152 187 228 214 224 223 225 252 244 209 204 227 211 179 207 207 139 240 259 243 221 254 228 227 320 75 126 140 149 156 161 167 169 171 174 178 181 183 186 189 190 189 192 196 198 200 198 197 200 199 196 194 191 189 185 182 179 176 174 171 170 167 164 160 157 153 143 137 137 131 125 121 116 107 99 92 86 82 78 72 67 62 58 52 48 44 39 36 33 32 29 28 26 25 25 24
183 165 212 244 223 245 274 262 235 228 213 179 254 212 193 226 180 138 220 253 245 219 232 199 216 225 169 151 149 154 161 167 174 176 179 184 187 188 187 188 192 195 195 195 195 197 201 201 200 201 201 199 195 191 189 187 183 179 177 175 173 171 168 163 159 157 151 143 141 146 141 130 125 120 113 105 96 90 86 78 70 65 58 54 50 44 41 38 34 31 30 29 27 26 25 24 24
190 166 206 239 221 266 275 262 210 181 139 142 252 353 272 250 166 170 179 243 260 229 222 206 215 215 180 174 168 165 169 173 181 185 188 192 194 196 196 196 198 200 198 196 195 196 200 202 202 200 202 202 197 193 191 189 184 180 178 176 175 172 168 163 159 158 155 151 148 151 147 135 131 126 118 110 100 94 86 74 64 58 51 48 43 37 35 32 30 29 27 27 27 26 25 23 23
201 210 217 235 235 272 267 252 216 171 107 126 274 296 262 245 172 195 172 217 247 217 218 214 218 214 179 178 178 173 177 181 186 192 196 198 200 202 204 203 202 202 200 198 198 199 201 203 204 202 202 203 201 197 195 192 187 184 181 178 177 173 171 167 164 163 161 160 157 158 154 142 138 133 126 119 109 100 87 71 56 51 44 40 38 33 30 27 26 26 24 25 27 25 24 24 24
221 249 232 237 236 249 263 258 233 199 174 211 221 228 245 273 260 224 191 227 238 195 200 205 219 221 186 176 175 178 185 188 192 196 199 200 203 204 205 205 203 203 202 203 202 202 203 203 205 204 203 204 203 199 198 195 191 189 185 183 181 178 177 175 171 170 168 169 168 168 163 151 147 144 139 132 121 108 87 67 51 46 41 36 35 30 27 26 23 22 22 23 24 23 23 22 22
212 255 264 255 246 243 261 267 237 207 210 222 208 309 271 240 255 248 215 237 240 222 223 206 211 201 176 171 176 188 192 193 199 202 202 203 205 207 205 205 205 204 203 204 204 203 204 204 205 206 205 205 202 198 197 196 193 190 188 187 187 185 185 182 177 176 175 176 175 175 172 162 159 157 150 146 133 116 90 66 50 43 42 37 34 30 28 26 21 20 18 18 22 21 19 18 18
218 241 263 271 268 260 274 285 258 234 229 225 219 274 247 227 258 291 249 248 243 227 239 235 218 154 159 179 188 194 198 201 206 206 208 210 211 210 208 207 205 203 204 205 204 204 206 205 205 206 206 206 202 198 197 197 194 192 192 192 190 189 192 188 181 181 180 178 180 180 178 172 169 167 161 160 150 130 100 70 49 43 43 38 34 30 27 23 20 18 15 17 18 16 16 14 13
225 228 259 285 282 278 288 290 272 255 238 187 207 254 250 235 295 281 255 249 245 227 232 237 225 198 183 189 194 195 201 205 208 209 212 214 212 211 211 208 205 205 207 206 203 205 206 205 206 207 207 205 202 198 197 197 195 195 195 194 193 192 195 193 186 185 183 183 184 183 183 178 176 176 171 173 167 149 115 72 46 48 42 36 33 28 24 19 16 15 13 16 16 14 14 10 7
229 243 280 276 276 283 276 274 274 264 242 188 203 251 264 234 183 267 258 240 231 228 235 234 217 220 209 197 200 198 203 208 208 207 209 210 209 212 211 207 207 208 207 205 205 205 203 204 205 207 206 205 202 199 199 198 197 198 197 195 196 195 197 195 190 189 186 187 187 185 188 183 182 184 182 186 180 169 145 81 48 50 39 32 29 23 21 16 14 13 11 14 13 11 10 7 3
285 335 316 285 292 302 275 268 272 266 250 202 191 251 285 292 181 247 256 236 191 216 234 234 217 225 218 207 207 200 209 213 207 203 201 204 208 210 208 207 207 206 205 206 206 203 202 203 203 205 205 204 202 200 200 199 199 199 198 196 197 198 199 196 196 196 190 188 189 188 191 188 189 190 189 193 189 185 182 160 51 49 36 28 25 20 18 13 12 9 9 12 9 6 5 2 358
288 15 319 287 321 306 273 267 257 234 225 181 151 289 286 240 223 242 253 251 225 231 240 235 224 228 225 219 214 208 217 213 203 204 209 209 210 209 209 210 207 204 207 206 204 201 202 202 201 202 204 204 203 201 201 200 200 200 200 199 198 200 200 198 201 201 193 189 191 191 193 193 192 193 195 196 192 194 197 210 43 51 36 27 24 19 14 9 7 4 4 6 4 2 359 356 356
277 357 239 281 331 295 269 259 240 230 201 149 131 273 266 244 240 245 254 253 239 242 245 238 230 231 228 226 222 222 222 209 204 210 214 214 213 211 211 213 208 205 205 202 202 202 201 201 200 200 202 204 203 201 201 201 200 201 201 200 200 201 201 200 203 204 197 192 192 193 196 198 194 194 197 197 197 198 202 215 174 61 40 31 24 14 8 2 360 359 359 358 0 358 352 353 354
276 310 221 259 294 275 274 240 195 213 195 150 140 225 257 258 257 251 252 243 226 230 241 236 232 233 230 228 226 231 226 213 216 217 217 216 214 213 213 212 208 206 204 200 202 201 199 199 199 199 200 203 202 200 201 201 201 202 202 201 200 202 201 201 203 204 200 196 195 195 198 202 197 196 197 198 199 198 204 213 178 86 51 36 21 11 3 358 357 357 355 354 355 352 347 353 354
247 251 277 264 204 261 282 267 199 195 225 162 150 205 256 262 267 262 251 234 217 224 237 235 233 234 231 231 228 233 235 225 225 225 222 218 214 214 214 212 206 205 204 202 201 198 197 198 198 198 198 200 201 200 200 201 202 202 202 202 201 202 201 202 204 205 202 198 198 198 200 202 200 200 199 200 200 197 204 207 190 145 88 39 16 9 360 357 357 355 355 352 346 344 346 353 354
278 203 249 260 231 266 289 286 230 176 164 190 195 209 250 258 268 271 262 230 218 222 237 236 234 236 230 233 232 233 241 237 233 232 226 218 214 215 214 211 207 206 206 203 199 196 196 197 196 197 197 198 199 199 199 200 201 202 203 202 202 201 200 202 204 205 203 199 200 200 202 203 202 201 200 202 201 199 203 206 200 180 166 22 13 5 0 359 355 352 355 349 338 340 348 352 352
287 227 234 252 245 261 274 292 314 149 150 202 223 228 245 253 268 285 285 244 215 218 233 235 233 237 233 233 236 236 240 238 237 233 223 215 214 215 213 211 209 206 205 202 199 197 196 195 194 196 196 196 197 197 197 199 200 201 202 202 201 201 201 203 203 205 205 201 201 202 203 204 203 200 201 203 201 201 202 205 206 195 206 270 11 360 4 0 354 351 346 343 339 344 353 354 350
240 230 234 256 248 253 258 269 245 161 172 205 222 237 249 258 263 269 273 259 230 225 228 234 234 236 236 235 236 238 239 239 241 235 220 213 214 213 210 209 208 204 202 201 199 197 195 193 192 193 194 194 195 196 196 197 197 198 199 198 199 200 200 201 203 206 207 205 204 202 202 204 204 201 201 203 203 204 203 207 210 205 213 220 331 345 3 358 353 347 338 339 344 352 358 356 350
233 239 244 254 257 257 255 262 226 178 192 215 219 236 243 253 256 252 258 258 253 248 238 238 240 239 239 237 237 239 238 242 245 236 217 212 213 209 206 206 204 202 200 198 196 194 193 190 189 191 193 192 192 193 193 193 192 193 194 194 195 197 197 199 203 206 208 209 207 205 204 205 205 203 201 203 205 205 207 210 212 211 211 211 241 300 353 354 348 340 335 339 344 354 359 357 353
250 257 258 256 258 265 259 264 249 187 196 224 219 236 242 248 255 249 248 252 256 256 249 241 239 240 243 241 243 243 241 247 250 232 215 212 211 206 201 201 198 196 195 194 192 192 192 189 188 190 191 191 191 191 191 191 190 190 191 192 193 194 196 198 200 204 207 209 209 209 207 206 206 205 203 204 206 207 208 211 211 212 210 212 237 275 342 349 343 336 335 340 345 349 350 356 356
251 252 260 261 248 263 263 258 256 193 196 247 232 242 249 247 256 257 245 236 244 250 249 248 240 235 242 246 248 249 247 254 257 224 212 209 205 198 195 194 192 190 191 192 191 191 191 190 190 191 191 191 193 193 193 193 194 194 193 194 194 194 196 198 200 203 206 207 209 211 210 208 208 208 207 206 208 210 209 211 212 212 211 214 231 259 329 338 336 335 333 339 344 342 341 351 359
244 247 257 263 248 268 269 246 254 205 186 255 248 245 253 249 255 260 251 235 235 241 243 250 249 240 244 246 246 249 251 254 250 231 213 202 195 190 189 190 191 191 190 190 191 190 190 191 192 192 192 193 195 195 196 196 197 197 197 197 196 196 197 201 203 203 204 205 208 210 210 211 211 210 209 209 210 211 211 212 213 214 216 218 230 258 307 322 326 331 329 334 339 334 335 346 357
240 243 252 260 252 265 268 244 251 227 204 257 263 257 257 255 264 263 253 244 241 244 243 249 253 247 247 248 245 248 249 247 240 232 212 192 186 184 186 189 189 189 187 188 189 189 190 192 193 194 195 195 196 197 198 198 197 197 199 201 199 198 198 200 201 201 202 203 205 207 210 212 213 212 211 211 212 212 212 213 215 216 217 223 235 256 286 302 313 320 321 326 326 323 330 336 339
243 234 233 251 250 244 255 270 305 291 277 282 280 284 269 233 248 257 253 245 244 247 247 251 253 246 249 256 253 248 246 241 231 220 196 183 184 186 188 188 186 186 187 188 189 190 192 194 195 196 196 197 198 198 197 197 195 194 195 195 195 196 196 194 194 196 198 202 204 206 209 211 212 213 212 213 213 213 213 212 215 217 218 225 236 248 265 280 293 303 309 311 309 311 319 318 319
259 227 213 237 248 247 256 286 331 315 293 280 243 280 275 207 219 244 251 247 246 244 242 246 250 246 245 254 257 252 245 236 225 208 190 189 189 186 187 186 185 187 190 191 191 192 194 195 196 197 197 198 199 198 197 195 194 193 191 188 188 189 189 192 195 196 196 201 205 206 207 209 210 211 211 213 213 213 212 212 213 216 219 224 231 240 247 260 275 286 291 287 289 297 306 306 308
270 227 207 229 244 255 264 277 310 269 267 273 149 241 277 242 210 231 235 240 248 247 240 242 247 247 239 239 251 253 243 227 219 207 193 190 185 181 187 189 189 192 194 192 192 194 196 196 197 197 198 199 199 198 197 196 195 195 195 194 193 192 192 197 200 200 200 202 204 205 206 207 209 209 210 212 212 211 211 211 213 214 218 222 225 232 237 247 261 269 271 271 274 272 282 293 299
268 234 197 217 236 252 259 241 223 237 276 286 146 132 286 278 236 206 211 222 240 248 247 247 244 243 240 236 243 248 239 214 201 203 197 192 188 185 190 192 194 196 193 191 192 194 196 197 197 197 198 199 199 199 198 198 198 198 198 198 199 200 200 201 201 201 203 202 203 204 204 205 207 209 210 210 209 210 209 209 211 212 214 218 223 227 232 241 251 257 261 259 257 260 270 283 289
258 117 171 182 205 231 117 145 234 305 327 283 195 123 289 280 252 182 200 210 221 237 240 243 244 239 239 238 240 245 239 213 197 201 198 194 193 193 193 193 196 196 192 192 194 195 196 197 197 197 199 199 199 199 200 201 201 201 200 200 202 204 205 204 202 201 202 201 201 203 203 204 206 207 209 210 209 208 208 209 211 212 214 216 220 224 227 236 248 252 254 251 249 257 267 274 277
241 93 81 57 56 48 64 69 69 36 306 263 192 146 223 281 274 159 188 209 209 227 232 234 236 236 240 240 238 242 240 220 205 205 201 195 195 195 194 192 194 195 194 195 196 195 196 197 197 198 199 200 200 201 201 202 202 202 202 202 203 203 203 203 201 199 200 200 199 200 202 203 204 205 206 208 208 206 206 208 210 212 215 216 218 221 226 234 246 251 250 250 250 259 268 268 268
148 79 47 23 6 24 48 14 69 47 276 241 179 172 181 273 288 136 169 207 199 209 221 234 239 238 244 244 237 234 232 221 209 207 202 195 193 191 190 190 192 194 195 195 196 196 196 196 197 199 200 201 201 202 202 203 203 204 205 204 204 203 200 199 197 197 197 197 197 198 200 202 203 204 204 204 205 205 204 205 208 212 213 216 219 220 227 233 242 248 244 247 254 265 274 270 266
91 83 66 11 326 13 27 353 56 216 265 220 181 180 180 234 270 113 249 252 204 205 203 221 236 238 243 246 242 232 228 217 200 199 192 177 177 184 189 192 191 191 193 195 197 196 196 197 198 199 201 202 203 202 203 203 204 205 207 206 206 205 201 200 199 198 197 197 197 198 199 201 201 202 202 202 203 203 203 203 205 208 210 214 217 217 224 231 237 241 241 247 257 266 270 267 264
94 100 103 26 301 345 356 313 62 222 259 228 189 177 199 241 261 274 276 283 231 221 213 215 224 233 241 246 245 237 225 209 192 188 181 174 181 185 189 193 191 191 194 195 196 196 196 198 199 200 203 203 203 203 203 204 205 206 207 207 207 206 204 204 203 202 201 199 198 197 197 198 197 198 200 202 203 202 202 204 204 206 210 211 213 215 222 230 236 240 242 248 256 261 262 260 258
154 148 146 168 217 253 261 260 269 262 266 251 190 163 240 277 280 226 235 237 222 214 217 220 217 225 236 241 248 244 218 205 194 183 180 183 189 190 191 194 193 195 197 195 195 196 197 199 200 202 205 204 203 204 204 205 207 208 208 208 208 207 206 207 206 205 203 201 200 199 199 199 198 200 202 203 204 202 202 204 204 205 207 207 210 214 221 229 235 238 243 248 252 255 254 252 251
181 159 143 176 183 178 216 243 260 275 285 278 185 156 247 292 277 214 223 239 236 219 222 226 223 233 242 248 260 253 219 206 194 185 189 193 193 192 194 195 197 199 197 196 197 198 198 200 202 204 205 204 204 205 205 206 208 209 209 209 209 208 208 208 208 208 206 203 201 201 201 201 202 203 205 205 203 202 201 201 201 202 203 205 209 214 219 226 232 238 243 247 248 247 245 244 247
219 132 121 211 196 182 220 254 245 248 313 286 228 195 239 269 268 249 242 258 261 238 233 231 234 246 254 258 255 240 218 201 190 193 200 202 196 192 196 198 200 200 197 198 200 199 200 202 203 205 206 205 205 205 206 207 209 208 209 210 210 210 210 209 209 209 208 206 204 203 203 203 205 206 206 205 202 201 200 198 198 200 202 204 208 213 218 223 229 236 239 242 243 241 241 241 244
189 135 181 216 163 165 210 273 269 178 260 270 259 249 272 308 291 269 240 252 262 262 255 240 237 242 239 242 242 231 219 200 192 201 204 202 197 194 201 200 200 201 200 202 203 202 203 203 203 206 207 206 207 208 209 209 208 208 209 210 210 210 209 210 210 209 207 206 205 205 205 205 205 206 205 205 202 200 200 198 198 199 201 204 207 211 217 223 228 233 236 238 239 237 238 240 242
133 178 214 162 56 115 157 235 304 246 248 263 269 269 281 295 283 308 37 264 260 261 256 244 240 241 238 243 243 231 220 203 196 210 215 208 202 200 202 203 203 204 204 206 208 207 206 205 205 206 206 206 208 209 210 210 208 208 210 210 210 210 210 210 210 209 206 204 204 205 205 205 205 205 205 203 201 199 198 199 199 199 200 203 208 213 218 222 226 231 233 234 235 233 236 240 241
140 206 212 103 127 225 156 171 207 237 246 255 265 271 276 255 261 301 317 250 241 238 237 237 241 242 244 248 246 237 220 208 204 210 216 210 207 208 204 205 207 207 209 211 211 210 210 210 210 209 208 209 209 208 209 211 211 210 210 211 211 210 210 210 209 207 205 204 205 205 204 205 205 204 203 201 200 199 198 198 199 199 201 205 209 213 217 221 225 228 229 230 231 232 237 242 245
97 6 347 60 183 184 180 181 167 221 243 254 262 268 275 257 253 289 279 245 238 244 239 238 241 239 241 245 246 238 216 216 213 208 212 209 209 213 209 208 209 209 212 212 210 210 211 213 212 212 213 213 211 209 210 212 213 212 212 211 211 211 210 209 207 205 205 204 205 204 204 205 203 202 202 201 200 199 198 198 199 200 203 206 209 212 216 221 223 225 226 228 230 233 239 245 248
175 207 244 253 222 174 226 220 169 216 240 251 256 256 268 265 221 305 295 264 233 241 241 244 245 240 246 253 251 238 220 224 223 214 215 212 212 216 215 217 217 215 216 213 210 211 212 213 214 214 214 213 212 212 211 213 214 214 212 211 210 210 209 208 206 205 205 204 204 205 204 203 202 201 200 199 199 199 199 199 200 201 204 206 209 213 216 219 220 221 224 227 231 234 240 246 249
180 197 207 209 211 205 252 247 215 208 238 242 252 255 261 270 276 296 299 287 258 246 236 246 254 251 252 253 246 234 222 228 229 219 216 214 213 215 215 218 216 214 215 214 212 212 212 213 214 214 214 213 214 214 213 213 214 214 214 212 209 208 207 207 206 204 204 203 203 204 203 201 200 199 200 199 199 199 199 200 200 202 205 207 210 212 214 216 216 218 221 226 230 234 239 245 250